Weather reports worldwide

Advertisment
Ölands Södra Udde, Sweden (2644): temperature & dewpoint: 04.07.2020 11:00:00 - 10.07.2020 11:00:00 (CEST)Ölands Södra Udde, Sweden (2644): wind speed & gusts: 04.07.2020 11:00:00 - 10.07.2020 11:00:00 (CEST)Ölands Södra Udde, Sweden (2644): wind direction: 04.07.2020 11:00:00 - 10.07.2020 11:00:00 (CEST)Ölands Södra Udde, Sweden (2644): reduced air pressure: 04.07.2020 11:00:00 - 10.07.2020 11:00:00 (CEST)Ölands Södra Udde, Sweden (2644): visibility: 04.07.2020 11:00:00 - 10.07.2020 11:00:00 (CEST)Ölands Södra Udde, Sweden (2644): precipitation: 04.07.2020 11:00:00 - 10.07.2020 11:00:00 (CEST)
Date & Time tt [°C] td [°C] ff [km/h] ff [kn] fx [km/h] fx [kn] dd ppp [hPa] vv [km] rr [mm]
10.07.2020 11:00:00 13,8 11,4 11 6 14 8 S 1008,9 40 0,0
10.07.2020 10:00:00 13,9 11,6 5 3 8 4 S 1009,1 42 0,0
10.07.2020 09:00:00 13,6 9,8 2 1 7 4 W 1009,2 50 0,0
10.07.2020 08:00:00 13,5 10,3 5 3 8 4 W 1009,2 50 0,0
10.07.2020 07:00:00 13,4 10,4 5 3 9 5 NW 1009,1 50 0,0
10.07.2020 06:00:00 13,5 10,7 0 0 4 2 N 1009,3 50 0,0
10.07.2020 05:00:00 12,3 10,6 3 1 6 4 NE 1009,3 50 0,0
10.07.2020 04:00:00 12,5 10,4 0 0 6 3 N 1009,6 50 0,0
10.07.2020 03:00:00 13,0 10,5 5 3 10 6 SE 1010,0 50 0,0
10.07.2020 02:00:00 13,1 10,8 9 5 13 7 S 1010,4 50 0,0
10.07.2020 01:00:00 13,3 10,8 10 5 16 8 S 1010,7 50 0,0
10.07.2020 00:00:00 13,4 10,4 13 7 19 10 S 1010,7 50 0,0
09.07.2020 23:00:00 13,5 10,6 17 9 22 12 S 1011,1 50 0,0
09.07.2020 22:00:00 13,8 11,5 18 10 22 12 S 1011,1 48 0,0
09.07.2020 21:00:00 14,2 10,6 13 7 22 12 SSW 1011,1 49 0,0
09.07.2020 20:00:00 14,3 10,7 16 9 22 12 SSW 1011,2 50 0,0
09.07.2020 19:00:00 14,4 11,0 16 8 22 12 SSW 1011,8 49 0,0
09.07.2020 18:00:00 15,3 10,3 16 8 26 14 SSW 1012,1 46 0,0
09.07.2020 17:00:00 15,4 10,3 18 10 25 14 SSW 1012,5 32 0,0
09.07.2020 16:00:00 16,0 11,2 17 9 29 16 SSW 1012,9 37 0,0
09.07.2020 15:00:00 15,7 10,0 15 8 32 17 SW 1013,0 31 0,0
09.07.2020 14:00:00 15,8 10,1 16 9 29 16 SW 1013,5 27 0,0
09.07.2020 13:00:00 15,5 10,5 16 9 29 16 SW 1013,7 28 0,0
09.07.2020 12:00:00 15,4 11,0 18 10 29 15 SW 1013,5 28 0,0
09.07.2020 11:00:00 14,8 11,0 22 12 30 16 SW 1013,6 27 0,0
09.07.2020 10:00:00 14,8 10,6 17 9 24 13 SW 1013,7 31 0,0
09.07.2020 09:00:00 14,7 10,9 12 7 22 12 WSW 1013,4 37 0,0
09.07.2020 08:00:00 13,6 10,0 18 10 24 13 WSW 1013,3 33 0,0
09.07.2020 07:00:00 12,9 9,5 20 11 27 15 W 1013,1 42 0,0
09.07.2020 06:00:00 12,4 9,2 16 9 24 13 W 1013,0 40 0,0
09.07.2020 05:00:00 12,3 9,0 22 12 28 15 W 1012,6 40 0,0
09.07.2020 04:00:00 12,4 8,9 21 11 30 16 W 1012,5 41 0,0
09.07.2020 03:00:00 12,7 9,5 18 10 32 17 W 1012,3 50 0,0
09.07.2020 02:00:00 12,9 9,0 22 12 32 17 W 1012,1 50 0,0
09.07.2020 01:00:00 13,0 8,1 19 11 29 16 W 1012,0 50 0,0
09.07.2020 00:00:00 13,2 8,7 16 9 19 11 WNW 1012,0 50 0,0
08.07.2020 23:00:00 13,6 9,0 16 9 22 12 W 1011,5 50 0,0
08.07.2020 22:00:00 13,8 8,4 16 8 25 13 W 1010,9 50 0,0
08.07.2020 21:00:00 14,3 8,7 17 9 22 12 WNW 1010,6 50 0,0
08.07.2020 20:00:00 15,0 8,2 11 6 15 8 WNW 1010,1 48 0,0
08.07.2020 19:00:00 15,5 7,3 11 6 37 20 W 1009,7 40 0,0
08.07.2020 18:00:00 14,5 9,9 31 17 43 23 WSW 1009,5 42 0,0
08.07.2020 17:00:00 15,4 9,5 30 16 47 25 WSW 1008,9 30 0,0
08.07.2020 16:00:00 14,9 9,5 36 19 48 26 SW 1008,7 29 0,0
08.07.2020 15:00:00 15,2 10,0 33 18 49 26 SW 1008,6 26 0,0
08.07.2020 14:00:00 14,9 10,3 35 19 49 26 SW 1008,5 30 0,0
08.07.2020 13:00:00 14,6 9,8 33 18 45 25 SW 1008,4 30 0,0
08.07.2020 12:00:00 14,3 9,3 28 15 44 24 WSW 1008,3 32 0,0
08.07.2020 11:00:00 14,4 9,8 31 17 46 25 WSW 1008,2 25 0,0
08.07.2020 10:00:00 13,7 9,1 28 15 43 23 WSW 1008,0 31 0,0
08.07.2020 09:00:00 13,1 8,6 35 19 43 23 WSW 1007,8 33 0,0
08.07.2020 08:00:00 12,9 8,8 33 18 42 23 WSW 1008,0 27 0,0
08.07.2020 07:00:00 12,5 8,4 31 17 40 21 WSW 1008,1 39 0,0
08.07.2020 06:00:00 12,1 8,0 29 15 36 19 W 1008,3 36 0,0
08.07.2020 05:00:00 12,1 7,6 27 15 36 19 W 1008,3 42 0,0
08.07.2020 04:00:00 12,3 9,5 27 14 34 18 WSW 1008,3 44 0,0
08.07.2020 03:00:00 12,2 8,9 28 15 34 18 W 1008,5 50 0,0
08.07.2020 02:00:00 12,5 10,0 24 13 33 18 W 1008,9 50 0,0
08.07.2020 01:00:00 12,7 9,5 26 14 32 18 WSW 1009,2 50 0,0
08.07.2020 00:00:00 12,7 10,9 21 11 34 18 WSW 1009,1 45 0,0
07.07.2020 23:00:00 12,6 11,5 23 12 45 24 WSW 1009,5 17 0,6
07.07.2020 22:00:00 13,1 10,8 21 11 36 19 WSW 1009,7 44 0,0
07.07.2020 21:00:00 13,3 9,4 31 17 42 23 WSW 1010,0 50 0,0
07.07.2020 20:00:00 13,3 9,9 21 11 52 28 SW 1010,6 47 0,3
07.07.2020 19:00:00 14,3 10,5 24 13 41 22 WSW 1011,0 36 0,0
07.07.2020 18:00:00 14,7 10,1 23 12 50 27 W 1011,1 37 0,0
07.07.2020 17:00:00 15,9 11,2 24 13 45 25 SW 1011,2 30 0,0
07.07.2020 16:00:00 15,6 10,8 34 18 47 26 SW 1011,0 31 0,0
07.07.2020 15:00:00 15,7 10,5 33 18 49 26 SW 1010,8 22 0,0
07.07.2020 14:00:00 15,6 10,4 27 15 46 25 WSW 1010,6 22 0,0
07.07.2020 13:00:00 16,2 10,5 32 17 44 24 WSW 1010,4 31 0,0
07.07.2020 12:00:00 15,5 9,8 18 10 30 16 WSW 1010,3 28 0,0
07.07.2020 11:00:00 16,0 9,1 27 15 41 22 W 1009,9 28 0,0
07.07.2020 10:00:00 15,3 9,2 24 13 43 23 W 1009,4 35 0,0
07.07.2020 09:00:00 14,7 9,5 29 15 40 21 W 1008,7 24 0,0
07.07.2020 08:00:00 13,5 9,7 29 16 41 22 W 1008,5 18 0,0
07.07.2020 07:00:00 13,1 9,4 25 13 43 23 W 1008,0 16 0,0
07.07.2020 06:00:00 12,9 9,0 32 17 47 25 W 1007,5 18 0,0
07.07.2020 05:00:00 13,0 9,3 33 18 51 28 W 1007,2 17 0,0
07.07.2020 04:00:00 13,1 9,2 34 18 46 25 W 1006,4 18 0,0
07.07.2020 03:00:00 13,2 9,6 35 19 50 27 W 1005,7 17 0,0
07.07.2020 02:00:00 13,5 9,7 36 19 50 27 W 1005,3 17 0,0
07.07.2020 01:00:00 13,8 9,8 44 24 54 29 WSW 1004,7 17 0,0
07.07.2020 00:00:00 13,8 10,2 41 22 51 27 W 1004,0 16 0,0
06.07.2020 23:00:00 14,1 10,5 42 23 55 30 W 1003,4 18 0,0
06.07.2020 22:00:00 14,4 10,6 44 24 57 31 WSW 1002,9 24 0,0
06.07.2020 21:00:00 14,7 10,3 44 24 56 30 WSW 1002,3 34 0,0
06.07.2020 20:00:00 14,5 10,9 28 15 51 27 WSW 1002,1 30 0,0
06.07.2020 19:00:00 15,1 11,3 33 18 53 29 WSW 1002,0 30 0,0
06.07.2020 18:00:00 15,4 11,6 35 19 55 30 SW 1001,4 24 0,0
06.07.2020 17:00:00 15,7 11,0 36 19 56 30 SW 1001,5 25 0,0
06.07.2020 16:00:00 15,6 11,8 37 20 54 29 SW 1001,5 22 0,0
06.07.2020 15:00:00 15,7 11,7 37 20 51 27 SW 1001,2 23 0,0
06.07.2020 14:00:00 15,0 10,6 31 17 48 26 SW 1001,3 32 0,0
06.07.2020 13:00:00 13,9 11,1 35 19 54 29 WSW 1001,1 7 0,3
06.07.2020 12:00:00 15,4 10,8 37 20 53 29 SW 1000,8 21 0,0
06.07.2020 11:00:00 15,4 11,3 34 18 54 29 SW 1000,5 21 0,0
06.07.2020 10:00:00 15,1 10,9 41 22 62 33 SW 1000,5 25 0,0
06.07.2020 09:00:00 15,0 11,0 27 14 46 25 SW 1000,4 27 0,0
06.07.2020 08:00:00 15,0 10,8 34 19 50 27 SW 1000,7 22 0,0
06.07.2020 07:00:00 14,4 11,2 33 18 46 25 SW 1000,8 26 0,0
06.07.2020 06:00:00 14,2 10,6 29 16 44 24 WSW 1000,9 28 0,0
06.07.2020 05:00:00 13,8 10,6 27 15 44 24 WSW 1000,8 26 0,0
06.07.2020 04:00:00 14,0 10,6 29 16 48 26 WSW 1000,9 25 0,0
06.07.2020 03:00:00 14,2 11,2 32 17 45 24 WSW 1001,1 21 0,0
06.07.2020 02:00:00 14,4 11,0 27 15 43 23 WSW 1001,2 23 0,0
06.07.2020 01:00:00 14,7 11,1 32 17 47 26 WSW 1001,1 22 0,0
06.07.2020 00:00:00 14,8 12,1 29 16 41 22 WSW 1000,9 20 0,0
05.07.2020 23:00:00 15,1 12,5 31 17 47 26 WSW 1000,8 19 0,0
05.07.2020 22:00:00 15,6 13,1 38 21 54 29 SW 1000,5 18 0,0
05.07.2020 21:00:00 15,8 13,6 41 22 56 30 SW 1000,0 19 0,0
05.07.2020 20:00:00 16,3 14,1 42 23 58 31 SW 999,9 19 0,0
05.07.2020 19:00:00 16,8 15,0 34 18 60 32 SW 1000,0 18 0,0
05.07.2020 18:00:00 16,8 15,0 36 19 61 33 SW 1000,0 21 0,0
05.07.2020 17:00:00 17,3 15,1 40 21 57 31 SW 1000,4 24 0,0
05.07.2020 16:00:00 17,1 15,8 29 16 50 27 SW 1000,5 20 0,0
05.07.2020 15:00:00 17,3 15,6 31 17 52 28 SW 1000,9 26 0,0
05.07.2020 14:00:00 17,1 16,0 29 16 47 26 SSW 1001,1 23 0,0
05.07.2020 13:00:00 16,6 16,0 29 16 49 27 SSW 1001,6 4,5 0,0
05.07.2020 12:00:00 16,7 16,1 37 20 50 27 SSW 1002,2 14 0,0
05.07.2020 11:00:00 17,0 16,5 29 16 40 22 SSW 1002,6 10 0,0
05.07.2020 10:00:00 16,6 16,0 24 13 35 19 SSW 1003,2 13 0,0
05.07.2020 09:00:00 16,2 15,9 21 11 29 15 SSW 1003,7 7 0,0
05.07.2020 08:00:00 16,2 15,7 17 9 31 17 SW 1004,2 9 0,0
05.07.2020 07:00:00 15,5 15,2 25 13 34 18 SW 1004,5 11 0,0
05.07.2020 06:00:00 15,4 15,2 24 13 35 19 SW 1004,8 10 0,0
05.07.2020 05:00:00 15,3 15,1 25 13 36 19 SW 1004,8 10 0,5
05.07.2020 04:00:00 15,3 15,0 25 13 36 20 WSW 1005,1 13 0,0
05.07.2020 03:00:00 15,2 14,9 24 13 39 21 WSW 1005,2 8 0,0
05.07.2020 02:00:00 15,5 15,2 29 16 46 25 WSW 1005,5 8 0,0
05.07.2020 01:00:00 15,7 15,4 32 18 45 25 SW 1005,6 9 0,1
05.07.2020 00:00:00 15,8 15,3 29 15 44 24 SW 1005,7 11 0,0
04.07.2020 23:00:00 15,5 15,2 28 15 44 24 SW 1006,1 7 0,9
04.07.2020 22:00:00 15,5 15,0 26 14 44 24 SW 1006,5 8 0,4
04.07.2020 21:00:00 15,3 14,8 29 16 45 24 SW 1006,8 9 0,3
04.07.2020 20:00:00 15,1 14,8 28 15 42 23 SW 1007,1 8 0,3
04.07.2020 19:00:00 15,0 14,7 27 15 46 25 SW 1007,5 3,6 0,9
04.07.2020 18:00:00 15,0 14,5 27 15 46 25 SW 1008,0 5 0,7
04.07.2020 17:00:00 15,9 14,0 34 18 45 24 SW 1008,3 11 0,0
04.07.2020 16:00:00 16,2 14,0 29 16 44 24 SW 1008,5 16 0,0
04.07.2020 15:00:00 17,0 14,1 31 17 46 25 SW 1008,5 17 0,0
04.07.2020 14:00:00 16,9 14,5 27 15 45 25 SW 1008,5 13 0,0
04.07.2020 13:00:00 16,9 14,0 29 16 47 26 SW 1008,6 22 0,0
04.07.2020 12:00:00 16,6 14,2 29 15 45 24 SW 1008,6 16 0,0
04.07.2020 11:00:00 16,0 14,3 26 14 43 23 SW 1008,4 16 0,0

tt = temperature
td = dewpoint
ff = wind speed
fx = gusts
dd = wind direction
ppp = reduced air pressure
vv = visibility
rr = precipitation

Next stations